Regional Weather Roundup
Issued by NWS

Home | Current Version | Previous Version | Text Only | Print | Product List | Glossary On
Versions: 1 2 3 4 5 6 7 8 9 10 11 12 13 14 15 16 17 18 19 20 21 22 23 24 25 26 27 28 29 30 31 32 33 34 35 36 37 38 39 40 41 42 43 44 45 46 47 48 49 50
000
ASUS43 KLMK 250402
RWRKY
KENTUCKY REGIONAL WEATHER ROUNDUP
NATIONAL WEATHER SERVICE LOUISVILLE KY
1200 AM EDT MON SEP 25 2017

NOTE "FAIR" INDICATES FEW OR NO CLOUDS BELOW 12,000 FEET
WITH NO SIGNIFICANT WEATHER AND/OR OBSTRUCTIONS TO VISIBILITY.

KYZ001>023-026-027-061>063-070>075-250500-
WESTERN AND SOUTH CENTRAL KENTUCKY

CITY           SKY/WX    TMP DP  RH WIND       PRES   REMARKS
PADUCAH        CLEAR     68  63  84 CALM      29.99S
HENDERSON      PTCLDY    70  66  87 SW3       30.00F
OWENSBORO      CLEAR     74  67  78 E3        30.01S
HOPKINSVILLE   CLOUDY    72  69  93 E3        30.00F
BOWLING GREEN  CLEAR     72  71  97 CALM      30.02S
GLASGOW        CLEAR     68  68 100 CALM      30.03S
$$

KYZ024-025-028>034-038-045-046-053-250500-
NORTH CENTRAL KENTUCKY

CITY           SKY/WX    TMP DP  RH WIND       PRES   REMARKS
LOUISVILLE/SDF PTCLDY    76  61  59 CALM      30.02F
LOUISVILLE/LOU CLEAR     70  64  81 CALM      30.03S
FORT KNOX      CLEAR     66  63  91 CALM      30.01F
$$

KYZ035>037-039>044-047>052-055>060-089>105-250500-
NORTHEAST KENTUCKY

CITY           SKY/WX    TMP DP  RH WIND       PRES   REMARKS
LEXINGTON      CLEAR     74  60  61 SE3       30.06S
COVINGTON      MOCLDY    71  56  58 SE3       30.05F
FRANKFORT      CLEAR     67  60  78 N3        30.04S
$$

KYZ054-064>069-076>088-106>120-250500-
SOUTHEAST KENTUCKY

CITY           SKY/WX    TMP DP  RH WIND       PRES   REMARKS
JACKSON        PTCLDY    74  59  59 CALM      30.08F
LONDON         CLEAR     70  64  81 CALM      30.06F
SOMERSET       CLEAR     66  66 100 CALM      30.06F
MIDDLESBORO    CLEAR     64  64  97 CALM      30.08F
MONTICELLO     CLEAR     65  65 100 VRB7      30.07S
$$




USA.gov is the U.S. government's official web portal to all federal, state and local government web resources and services.